www.pogodaiklimat.ru

Погода и климат >> Архив погоды >> Сербия >> Вршац


ПОГОДА в Вршаце

  • Прогноз погоды в Вршаце
  • Монитор погоды в Вршаце

АРХИВ ПОГОДЫ в Вршаце

Время (UTC), дата Ветер
(напр.,м/с)
 
Видим.   Явления Облачность Т
(С)
Тd
(С)
f
(%)
Тe
(С)
Тes
(С)
Комфортность P
(гПа)
Po
(гПа)
Тmin
(С)
Tmax
(С)
R
(мм)
R24
(мм)
S
(см)
10 15.05 Ю 1 20 км 10/8 400 м
[St As op]
+9.9 +6.4 79 +10 +10 1014.9 1004.7
11 15.05 З 2 20 км 10/8 450 м
[St As op]
+10.0 +6.7 80 +9 +9 1015.0 1004.8
12 15.05 Ю 1 20 км {дождь} 10/8 480 м
[St As op]
+10.5 +6.6 77 +10 +11 1015.1 1004.9 0.0
13 15.05 Ю 1 20 км 10/8 600 м
[St As op]
+11.4 +6.6 72 +11 +12 1014.8 1004.7
14 15.05 Ю 1 20 км 10/8 700 м
[St As op]
+11.7 +6.7 71 +12 +12 1014.7 1004.6
15 15.05 СЗ 1 20 км 9/8 800 м
[St As op]
+11.8 +6.2 69 +12 +13 1014.8 1004.7
16 15.05 С 1 20 км 9/9 800 м
[St]
+11.8 +5.6 66 +12 +12 1014.6 1004.5
17 15.05 СЗ 2 20 км 9/9 800 м
[St]
+11.6 +6.6 71 +11 +11 1014.6 1004.5
18 15.05 СЗ 1 15 км 9/9 900 м
[Sc]
+11.2 +7.0 75 +11 +11 1015.5 1005.2 +12.0
19 15.05 штиль 0 15 км 9/9 900 м
[Sc]
+10.8 +7.6 81 +10 +10 1016.1 1005.7
20 15.05 штиль 0 15 км 8/5 1000 м
[Sc Ac trans Ci fib]
+10.0 +6.4 78 +9 +9 1016.4 1006.0
22 15.05 В 2 15 км ясно +6.2 +4.4 88 +4 +4 1016.0 1005.4
23 15.05 штиль 0 15 км ясно +5.4 +4.4 93 +4 +4 1016.3 1005.7
00 16.05 штиль 0 15 км ясно +4.1 +3.2 94 +3 +3 1016.0 1005.4
01 16.05 В 1 15 км ясно +5.1 +4.3 95 +4 +4 1015.8 1005.2
03 16.05 штиль 0 6000 м туман поземный 5/3 900 м
[Sc Ci fib]
+5.2 +4.5 95 +4 +4 1015.3 1004.8
04 16.05 штиль 0 8000 м туман поземный 5/3 900 м
[Sc Ci fib]
+3.7 +3.0 95 +3 +3 1015.5 1004.9
05 16.05 СВ 1 8000 м дымка 4/1 480 м
[St Ac trans Ci fib]
+7.7 +6.7 93 +7 +9 1015.2 1004.7
06 16.05 С 1 8000 м дымка 5/1 480 м
[St Ci fib]
+10.3 +7.2 81 +10 +15 1015.0 1004.7 +3.4
07 16.05 С 2 10 км 5/4 480 м
[Cu hum Ci fib]
+11.7 +6.5 70 +11 +16 1015.2 1004.8
08 16.05 СЗ 2 10 км 8/8 700 м
[Cu hum]
+12.2 +6.1 66 +11 +14 1015.0 1004.6
09 16.05 СЗ 2 10 км 8/8 800 м
[Cu hum]
+13.3 +7.0 66 +13 +16 1014.7 1004.5
10 16.05 СЗ 4 20 км 8/8 800 м
[Cu hum]
+14.1 +7.0 62 +13 +15 1014.2 1004.0
11 16.05 С 3 20 км 8/8 800 м
[Cu hum]
+14.2 +7.3 63 +13 +16 1014.1 1003.9
12 16.05 СЗ 3 20 км 8/8 900 м
[Cu hum]
+14.4 +7.7 64 +14 +16 1013.8 1003.6
13 16.05 СЗ 4 20 км 8/8 900 м
[Cu hum]
+14.5 +8.3 66 +13 +15 1013.6 1003.3
15 16.05 СЗ 4 20 км 9/9 600 м
[Sc]
+14.1 +8.7 70 +13 +13 1013.3 1003.1
16 16.05 СЗ 2 10 км слаб. дождь 10/8 480 м
[Sc As op]
+13.1 +10.2 83 +12 +12 1013.2 1003.0
17 16.05 штиль 0 10 км слаб. дождь 10/6 480 м
[Frnb As op]
+12.8 +10.7 87 +12 +12 1013.2 1003.0
18 16.05 З 2 10 км слаб. дождь 10/8 600 м
[Frnb As op]
+12.2 +10.4 89 +11 +11 1013.1 1003.0 +14.8 1
19 16.05 штиль 0 10 км в посл. час дождь 10/8 600 м
[St As op]
+11.6 +9.6 88 +11 +11 1013.8 1003.7
20 16.05 штиль 0 10 км слаб. дождь 10/8 600 м
[Frnb As op]
+11.3 +9.5 89 +11 +11 1014.2 1003.9
21 16.05 штиль 0 10 км слаб. дождь 10/8 480 м
[Frnb As op]
+11.0 +9.4 90 +10 +10 1014.1 1004.0
22 16.05 штиль 0 10 км слаб. дождь 10/8 480 м
[Frnb As op]
+10.6 +9.4 92 +10 +10 1014.6 1004.2
23 16.05 штиль 0 6000 м дождь 10/8 90 м
[Frnb As op]
+10.1 +9.3 95 +9 +9 1014.5 1004.1
00 17.05 штиль 0 6000 м слаб. дождь 10/8 90 м
[Frnb As op]
+10.1 +9.3 95 +9 +9 1014.2 1003.8 3
01 17.05 З 1 3000 м слаб. дождь 10/8 90 м
[Frnb As op]
+10.0 +9.3 95 +9 +9 1014.1 1003.7
02 17.05 СЗ 1 3000 м слаб. дождь 10/8 90 м
[Frnb As op]
+10.1 +9.4 95 +10 +10 1013.9 1003.6
03 17.05 СЗ 1 3000 м в посл. час дождь 10/8 90 м
[St As op]
+10.0 +9.4 96 +9 +9 1013.8 1003.4
04 17.05 штиль 0 4000 м дымка 10/8 90 м
[St As op]
+10.1 +9.4 95 +9 +9 1013.8 1003.6
05 17.05 штиль 0 3000 м дымка 10/8 90 м
[St As op]
+10.2 +9.5 95 +9 +9 1014.3 1004.1
06 17.05 СЗ 1 3000 м дымка {дождь} 10/10 90 м
[St]
+10.4 +9.5 94 +10 +10 1014.6 1004.2 +9.9 4
07 17.05 штиль 0 3500 м дымка 10/10 90 м
[St]
+11.0 +9.8 92 +10 +10 1014.8 1004.4
08 17.05 В 1 6000 м дымка 10/10 180 м
[St]
+11.6 +9.9 89 +11 +11 1014.9 1004.6
09 17.05 штиль 0 10 км 9/9 300 м
[St]
+13.2 +10.1 81 +13 +15 1014.6 1004.4
10 17.05 В 1 15 км 9/9 400 м
[St]
+13.6 +10.0 79 +14 +16 1014.5 1004.2
11 17.05 В 1 15 км 9/9 600 м
[St]
+15.0 +10.1 72 +16 +18 1014.1 1003.9
12 17.05 С 1 15 км 9/9 700 м
[Cu Sc]
+15.2 +10.1 72 +16 +18 1014.0 1003.9
13 17.05 штиль 0 15 км 9/6 700 м
[St As op]
+15.4 +10.2 71 +15 +18 1014.0 1003.8
14 17.05 штиль 0 15 км 9/9 800 м
[Cu Sc]
+16.5 +10.7 69 +16 +18 1013.6 1003.5
15 17.05 СВ 1 15 км 9/9 800 м
[Cu Sc]
+16.1 +10.6 70 +17 +18 1013.1 1003.0
16 17.05 СВ 1 15 км 8/8 800 м
[Cu Sc]
+16.4 +10.9 70 +17 +18 1012.7 1002.5
17 17.05 СВ 2 15 км 4/3 900 м
[Cu hum Ac trans]
+15.9 +11.4 75 +16 +16 1012.4 1002.2
18 17.05 СВ 2 15 км 3/3 1000 м
[Sc diur, vesp]
+14.0 +11.5 85 +13 +13 1012.6 1002.4 +16.7
19 17.05 СВ 2 15 км ясно +12.9 +11.4 91 +12 +12 1013.0 1002.7
20 17.05 С 1 10 км ясно +11.3 +10.2 93 +11 +11 1012.8 1002.5
21 17.05 С 3 10 км ясно +12.6 +10.4 86 +11 +11 1012.6 1002.4
22 17.05 В 1 10 км ясно +9.8 +8.7 93 +9 +9 1012.5 1002.1
23 17.05 штиль 0 6000 м дымка ясно +9.0 +8.4 96 +8 +8 1012.5 1002.1
00 18.05 штиль 0 5000 м дымка ясно +9.7 +9.2 97 +9 +9 1012.4 1002.0
01 18.05 СВ 1 4000 м дымка ясно +9.6 +9.0 96 +9 +9 1012.0 1001.6
02 18.05 СВ 1 4000 м дымка ясно +9.9 +9.3 96 +9 +9 1011.6 1001.3
03 18.05 Ю 1 4000 м дымка ясно +9.0 +8.6 97 +8 +8 1011.2 1000.8
04 18.05 штиль 0 500 м туман ясно +9.1 +8.7 97 +8 +9 1011.4 1001.0
05 18.05 штиль 0 1000 м в посл. час туман ясно +11.9 +11.4 97 +11 +14 1011.0 1000.8
06 18.05 СВ 2 8000 м дымка {туман} ясно +15.0 +12.4 84 +15 +20 1010.9 1000.7 +7.7
07 18.05 ЮЗ 1 15 км ясно +17.2 +13.1 77 +18 +29 1011.1 1001.0
08 18.05 ЮЗ 2 15 км 3/1 800 м
[Cu hum Ci fib]
+17.7 +13.6 77 +18 +29 1011.2 1001.1
09 18.05 Ю 2 15 км 4/3 800 м
[Cu hum Ci fib]
+19.6 +12.9 65 +22 +33 комфорт 1010.9 1000.9
10 18.05 Ю 2 20 км 5/3 800 м
[Cu hum Ci fib]
+20.8 +13.8 64 +24 +36 комфорт 1010.3 1000.4
11 18.05 ЮЗ 2 20 км 5/3 800 м
[Cu hum Ci fib]
+21.6 +13.8 61 +24 +36 комфорт 1009.7 999.8
12 18.05 Ю 2 20 км 5/3 800 м
[Cu hum Ci fib]
+22.1 +13.3 57 +25 +36 комфорт 1009.2 999.3
13 18.05 Ю 2 20 км 3/3 800 м
[Cu hum]
+23.7 +11.3 46 +25 +35 комфорт 1008.5 998.6
14 18.05 Ю 2 20 км 1/1 800 м
[Cu med, cong]
+23.7 +10.1 42 +25 +34 комфорт 1007.7 997.9
15 18.05 ЮЗ 1 20 км 1/1 900 м
[Cu hum]
+24.5 +8.9 37 +25 +31 комфорт 1007.1 997.3
16 18.05 СВ 1 20 км 1/1 1200 м
[Cu hum]
+23.8 +12.5 49 +26 +28 жарко 1006.7 996.9
17 18.05 СВ 2 20 км 4/0
[Ci fib]
+21.2 +15.2 69 +24 +25 комфорт 1006.9 997.0
18 18.05 СВ 3 20 км 4/0
[Ci fib]
+18.9 +15.0 78 +20 +20 1007.1 997.1 +24.6
19 18.05 СВ 3 20 км 4/0
[Ci fib]
+17.9 +14.6 81 +18 +18 1007.5 997.5
20 18.05 СВ 3 20 км 4/0
[Ci fib]
+18.3 +14.0 76 +19 +19 1007.4 997.4
21 18.05 СВ 3 20 км 4/0
[Ci fib]
+19.3 +13.4 69 +21 +21 комфорт 1007.4 997.5
22 18.05 ЮЗ 1 10 км гроза, ливневой дождь 10/10 900 м
[Cb calv]
+16.3 +14.0 86 +17 +17 1008.7 998.6
23 18.05 С 2 8000 м дождь 10/6 1000 м
[Sc As op]
+15.4 +14.2 93 +15 +15 1008.1 998.0
00 19.05 штиль 0 10 км в посл. час дождь {гроза, ливн. осадки} 4/4 1200 м
[Sc]
+14.2 +13.3 94 +14 +14 1008.0 997.9 3
01 19.05 ЮЗ 1 10 км 4/4 1500 м
[Sc]
+13.4 +12.9 97 +13 +13 1008.4 998.2
02 19.05 штиль 0 1000 м дымка ясно +11.5 +11.0 97 +11 +11 1008.3 998.0
03 19.05 СВ 1 600 м туман ясно +10.6 +10.1 97 +10 +10 1008.3 998.0
04 19.05 С 1 1000 м дымка ясно +11.3 +10.9 97 +11 +12 1008.5 998.2
05 19.05 штиль 0 8000 м дымка ясно +14.9 +14.4 97 +15 +18 1008.2 998.1
06 19.05 штиль 0 10 км ясно +17.5 +13.2 76 +17 +25 1007.9 998.0 +10.0 3
07 19.05 штиль 0 10 км 3/0
[Ci fib]
+19.6 +14.5 72 +21 +33 комфорт 1007.6 997.8
08 19.05 С 1 15 км 4/0
[Ci fib]
+21.8 +13.8 60 +25 +39 комфорт 1007.3 997.6
09 19.05 Ю 3 20 км 4/0
[Ci fib]
+23.5 +14.5 57 +26 +39 жарко 1006.8 997.0
10 19.05 Ю 2 20 км 5/1 1500 м
[Cu hum Ci fib]
+24.6 +14.4 53 +27 +42 жарко 1006.0 996.2
11 19.05 Ю 2 20 км 8/4 1200 м
[Cu hum Ac trans Ci fib]
+25.6 +14.4 50 +28 +35 жарко 1005.4 995.9
12 19.05 В 5-11
{11}
20 км 9/9 1200 м
[Cu Sc]
+24.4 +12.8 48 +26 +27 жарко 1004.9 995.4
13 19.05 ЮВ 5 20 км 9/4 1200 м
[Cu hum Ac trans]
+24.5 +12.6 47 +26 +28 жарко 1004.7 995.2
14 19.05 ЮВ 4 20 км 9/0
[Ac As]
+24.8 +13.6 50 +27 +29 жарко 1004.5 994.8
15 19.05 ЮВ 2
{16}
20 км 9/0
[Ac As]
+25.1 +14.4 51 +28 +30 жарко 1003.8 994.1
16 19.05 СВ 2 20 км 9/9 1500 м
[Sc]
+23.7 +16.2 63 +27 +27 жарко 1003.1 993.4
17 19.05 В 1 20 км 8/8 1500 м
[Sc]
+22.7 +18.1 75 +28 +28 душно 1001.8 992.2
18 19.05 В 5 15 км 8/3 1000 м
[Cu Sc Ac trans Ci fib]
+23.8 +13.0 51 +26 +26 жарко 1000.6 990.8 +25.7
19 19.05 ЮВ 11 10 км 8/4 900 м
[Cu Sc Ac trans Ci sp]
+23.6 +13.2 52 +26 +26 жарко 1000.7 990.9
20 19.05 З 8 8000 м гроза, ливневой дождь 10/8 300 м
[Cb cap Ac As]
+16.0 +12.5 80 +14 +14 1003.8 993.7
21 19.05 ЮЗ 1 2000 м сильн. гроза, ливневой дождь 10/10 300 м
[Cb cap]
+13.7 +13.2 97 +14 +14 1005.7 995.6
22 19.05 СВ 3 8000 м гроза, ливневой дождь 10/10 300 м
[Cb cap]
+14.2 +13.9 98 +13 +13 1006.6 996.5
23 19.05 В 1 10 км в посл. час гроза 9/6 1200 м
[Sc Ac trans]
+15.5 +13.1 86 +16 +16 1006.3 996.2
00 20.05 В 1 10 км {гроза} ясно +13.7 +12.9 95 +14 +14 1006.3 996.1 24
01 20.05 ЮВ 4 10 км ясно +14.3 +12.4 88 +13 +13 1006.5 996.3
02 20.05 Ю 4 10 км ясно +14.6 +13.0 90 +13 +13 1006.3 996.1
03 20.05 ЮВ 3 15 км 6/6 1000 м
[Sc]
+14.5 +12.5 88 +14 +14 1006.2 996.0
04 20.05 Ю 3 20 км 9/5 1000 м
[Sc Ci fib]
+15.7 +12.0 79 +15 +15 1006.3 996.2
05 20.05 ЮВ 3 20 км 6/1 900 м
[Sc Ac trans Ci fib]
+17.1 +11.7 71 +17 +18 1006.4 996.3
06 20.05 ЮВ 3 30 км 6/1 1000 м
[Cu hum Ac trans Ci sp]
+17.8 +11.6 67 +18 +21 1006.9 996.8 +13.7 24
07 20.05 Ю 5 30 км 6/1 1000 м
[Cu hum Ac trans Cs]
+19.0 +12.1 64 +20 +23 1007.2 997.2
08 20.05 Ю 5 30 км 8/1 1000 м
[Cu hum Ac trans Cs]
+19.8 +13.2 66 +21 +25 комфорт 1007.4 997.4
09 20.05 ЮВ 4 30 км 8/1 1000 м
[Cu hum Ac trans Cs]
+20.6 +12.4 59 +23 +29 комфорт 1007.5 997.6
10 20.05 Ю 5 30 км 8/3 1000 м
[Cu hum Ac trans Cs]
+20.9 +12.2 57 +23 +27 комфорт 1007.8 997.9
11 20.05 Ю 5 20 км 8/5 900 м
[Cu med, cong Ac trans Cs]
+21.9 +12.5 55 +24 +28 комфорт 1007.3 997.5
12 20.05 Ю 2 20 км гроза без осадков 8/6 900 м
[Cb cap Cs]
+20.5 +12.5 60 +23 +29 комфорт 1007.6 997.7
13 20.05 В 1 10 км в посл. час гроза 8/6 1000 м
[Cu Sc As op]
+17.6 +10.5 63 +19 +22 1007.9 997.9
15 20.05 ЮВ 6 20 км {гроза, ливн. осадки} 9/6 900 м
[Cu Sc As op]
+18.4 +11.4 64 +18 +19 1007.5 997.5
16 20.05 ЮВ 5 20 км 9/4 1200 м
[Sc As op]
+17.0 +11.4 70 +16 +17 1007.0 997.0
17 20.05 Ю 6 20 км 9/4 1200 м
[Sc Ac As]
+16.1 +12.2 78 +15 +15 1007.5 997.4
18 20.05 ЮВ 4
{12}
15 км {гроза, ливн. осадки} 9/5 1200 м
[Sc Ac As]
+16.3 +10.4 68 +16 +16 1007.1 997.2 +22.0 1
19 20.05 Ю 2 15 км 9/4 1200 м
[Sc Ac As]
+14.8 +12.3 85 +14 +14 1009.0 999.0
20 20.05 ЮЗ 2 15 км 9/4 1200 м
[Sc Ac As]
+14.9 +12.2 84 +15 +15 1009.6 999.6
21 20.05 Ю 1 15 км 9/9 1000 м
[Cu Sc]
+14.3 +11.6 84 +15 +15 1009.9 999.8
22 20.05 ЮВ 4 10 км слаб. дождь 10/6 1000 м
[Sc As op]
+13.8 +10.9 83 +12 +12 1009.5 999.5
23 20.05 штиль 0 10 км слаб. дождь 10/6 1000 м
[Sc As op]
+13.8 +10.8 82 +13 +13 1010.2 1000.0
00 21.05 ЮВ 1 10 км в посл. час дождь 9/5 1200 м
[Sc As op]
+12.8 +11.2 90 +13 +13 1009.7 999.5 1
01 21.05 Ю 2 10 км 9/5 1200 м
[Sc As op]
+13.6 +10.4 81 +13 +13 1009.6 999.4
02 21.05 Ю 5 15 км 8/5 1200 м
[Sc As op]
+13.6 +10.6 82 +12 +12 1009.8 999.6
03 21.05 Ю 2 15 км 5/5 1380 м
[Sc]
+13.4 +10.2 81 +13 +13 1009.7 999.7
04 21.05 Ю 6 15 км 5/3 1500 м
[Sc Ac trans]
+13.4 +10.2 81 +11 +11 1009.9 999.8
05 21.05 Ю 5 20 км 5/0
[Ac trans]
+14.3 +9.1 71 +13 +14 1010.1 1000.1
06 21.05 Ю 6 20 км 4/0
[Ac trans]
+15.7 +9.7 67 +14 +16 1010.4 1000.3 +12.5 1
07 21.05 Ю 7 20 км 5/0
[Ac trans Ci fib]
+16.9 +10.1 64 +16 +18 1010.8 1000.7
08 21.05 Ю 4 20 км 4/1 1000 м
[Cu med, cong Ci fib]
+18.1 +10.2 60 +18 +25 1010.9 1000.9
09 21.05 ЮЗ 3 20 км 4/3 1000 м
[Cu med, cong Ci fib]
+19.3 +9.5 53 +20 +30 1011.0 1000.9
10 21.05 Ю 2 20 км 5/5 1000 м
[Cu med, cong]
+20.0 +9.5 51 +22 +31 комфорт 1010.9 1000.9
11 21.05 Ю 2 20 км 5/5 1000 м
[Cu med, cong]
+20.5 +8.2 45 +22 +32 комфорт 1010.8 1000.9
12 21.05 ЮЗ 2 20 км 5/5 1000 м
[Cu med, cong]
+20.8 +8.5 45 +23 +31 комфорт 1010.6 1000.6
13 21.05 ЮЗ 2 20 км 5/5 1000 м
[Cu med, cong]
+21.8 +8.8 43 +23 +30 комфорт 1010.5 1000.5
14 21.05 Ю 3 20 км 5/5 1000 м
[Cu med, cong]
+21.9 +9.0 44 +23 +27 комфорт 1010.3 1000.3
15 21.05 ЮЗ 2 20 км 4/4 1000 м
[Cu med, cong]
+21.4 +8.7 44 +23 +26 комфорт 1010.2 1000.2
16 21.05 Ю 2 20 км 4/4 1000 м
[Cu med, cong]
+21.3 +8.4 44 +22 +24 комфорт 1009.9 1000.0
17 21.05 Ю 3 20 км 8/8 900 м
[Cu med, cong]
+18.4 +8.1 51 +19 +19 1010.5 1000.4
18 21.05 З 2 20 км 5/5 900 м
[Cu med, cong]
+17.2 +9.7 61 +18 +18 1011.2 1001.1 +22.3
19 21.05 Ю 4 20 км 5/5 1000 м
[Sc diur, vesp]
+16.2 +9.8 66 +16 +16 1011.8 1001.7
20 21.05 З 2 20 км 5/5 1500 м
[Sc]
+15.8 +10.5 71 +16 +16 1012.8 1002.6
21 21.05 штиль 0 15 км 6/6 1380 м
[Sc]
+14.9 +11.2 79 +15 +15 1012.6 1002.5
22 21.05 штиль 0 15 км 6/6 1380 м
[Sc]
+14.3 +11.8 85 +14 +14 1012.8 1002.6
23 21.05 Ю 2 15 км 6/6 1200 м
[Sc]
+15.5 +10.3 71 +15 +15 1012.8 1002.6
00 22.05 Ю 3 10 км в посл. час дождь 9/9 1200 м
[Sc]
+14.5 +10.8 78 +14 +14 1012.9 1002.7 0.0
01 22.05 Ю 4 10 км 8/8 1200 м
[Sc]
+14.4 +11.1 81 +13 +13 1012.9 1002.7
03 22.05 ЮВ 4 10 км 9/9 1200 м
[Sc]
+14.5 +10.8 78 +13 +13 1012.5 1002.3
04 22.05 Ю 4 20 км 9/9 1380 м
[Sc]
+15.1 +10.4 73 +14 +14 1012.5 1002.3
05 22.05 Ю 4 20 км 9/9 1380 м
[Sc]
+15.2 +10.6 74 +14 +14 1012.6 1002.4
06 22.05 Ю 5
{11}
20 км 6/4 1380 м
[Sc Ac trans]
+16.0 +11.0 72 +15 +16 1012.8 1002.6 +14.3
07 22.05 Ю 3 20 км 9/6 700 м
[Cu Sc Ac trans]
+16.9 +11.8 72 +17 +18 1012.9 1002.8
08 22.05 Ю 4 20 км слаб. дождь 9/9 800 м
[Cu Sc]
+17.5 +12.3 72 +17 +18 1013.2 1003.1
09 22.05 Ю 2 15 км в посл. час дождь 9/9 1200 м
[Sc]
+15.6 +12.8 83 +15 +17 1013.8 1003.7
10 22.05 Ю 4 15 км 8/8 480 м
[Sc]
+17.6 +12.5 72 +17 +20 1013.7 1003.6

 

Местоположение метеостанции Вршац (Сербия): широта 45.15 долгота 21.32 высота над уровнем моря 85 м.

В архиве по умолчанию представлена погода в Вршаце за последнюю неделю. Архивные данные за месяц целиком и за предыдущие месяцы, начиная с января 2011 года, Вы можете получить, выбрав интересующий диапазон дат из раскрывающегося списка и нажав кнопку "Ввод!".


*Определитесь, кто Вы:
робот инопланетянин человек

Внимание! Время в таблицах - всемирное. Для получения местного времени необходимо прибавить поправку, которая равна 1 ч.

Смотрите также архив погоды в соседних городах и на ближайших метеорологических станциях:

Погода в Банатски-Карловаце (Сербия) (25 км)
Погода в Банлоке (Румыния) (30 км)
Погода в Оравице (Румыния) (31 км)
Погода в Велико-Градиште (Сербия) (47 км)
Погода в Решице (Румыния) (50 км)
Погода в Молдова-Вече (Румыния) (54 км)
Погода в Семениче (Румыния) (57 км)
Погода в Божовичах (Румыния) (59 км)
Погода в Тимишоаре (Румыния) (69 км)
Погода в Зренянине (Сербия) (75 км)

Пояснения к столбцам:

Ветер - указаны скорость ветра в м/с - средняя за 10 мин, порывы в срок и между сроками (в фигурных скобках) и направление, откуда дует ветер: С - северный, СВ - северо-восточный, В - восточный, ЮВ - юго-восточный, Ю - южный, ЮЗ - юго-западный, З - западный, СЗ - северо-западный.
Видимость - горизонтальная дальность видимости в метрах или километрах. При видимости от 1 до 10 км при отсутствии осадков обычно наблюдается дымка, при ухудшении видимости до 1 км и менее - туман. В сухую погоду видимость может ухудшаться дымом, пылью или мглою.
Явления - указаны атмосферные явления, наблюдавшиеся в срок или в последний час перед сроком; фигурными скобками обозначены явления, наблюдавшиеся между сроками (за 1-3 часа до срока); квадратными скобками обозначены град или гололедные отложения с указанием их диаметра в мм.
Облачность - указаны через наклонную черту общая и нижняя облачность в баллах и высота нижней границы облаков в метрах; квадратными скобками обозначены формы облаков: Ci - перистые, Cs - перисто-слоистые, Cc - перисто-кучевые, Ac - высококучевые, As - высокослоистые, Sc - слоисто-кучевые, Ns - слоисто-дождевые, Cu - кучевые, Cb - кучево-дождевые. Подробнее классификацию облаков см. в Атласе облаков (PDF).
T - Температура воздуха - температура, измеренная на высоте 2 м над землей.
Td - Температура точки росы - температура, при понижении до которой содержащийся в воздухе водяной пар достигнет насыщения.
f - Относительная влажность воздуха - влажноcть воздуха, измеренная на высоте 2 м над землей.
Te - Эффективная температура - температура, которую ощущает одетый по сезону человек в тени. Характеристика душности погоды. При расчете учитывается влияние влажности воздуха и скорости ветра на теплоощущения человека.
Tes - Эффективная температура на солнце - температура, которую ощущает человек, с поправкой на солнечный нагрев. Характеристика знойности погоды. Зависит от высоты солнца над горизонтом, облачности и скорости ветра. Ночью, в пасмурную погоду, а также при ветре 12 м/с и более поправка равна нулю.
P - Атмосферное давление - приведенное к уровню моря атмосферное давление.
Po - Атмосферное давление - измеренное на уровне метеостанции атмосферное давление.
Tmin - Минимальная температура - минимум температуры воздуха на высоте 2 м над землей.
Tmax - Максимальная температура - максимум температуры воздуха на высоте 2 м над землей.
R - Количество осадков - Количество выпавших осадков за период времени, мм. При наведении курсора мыши на число - период времени, за который выпало указанное количество осадков.
R24 - Количество осадков - Количество выпавших осадков за 24 часа, мм.
S - Снежный покров - Высота снежного покрова, см. При наведении курсора мыши на число - состояние снежного покрова и степень покрытия местности в баллах.